Location: San Gennaro Vesuviano
(40.8833°N, 14.5333°E)
Time: 22:20:27
(UTC+00:00)

Meteor 1-27 - Pass Details

Date: 22 April 2021
Orbit: 838 x 892 km, 81.2° (Epoch: 10 May)

Event Time Altitude Azimuth Distance (km) Brightness Sun altitude
Exits shadow 20:14:08 29° 200° (SSW) 1,558 5.3 -24.3°
Maximum altitude 20:17:12 74° 280° (W) 918 4.4 -24.7°
Drops below altitude 10° 20:23:03 10° 6° (N) 2,560 7.2 -25.4°
Sets 20:25:32 0° 8° (N) 3,508 8.0 -25.8°
